Regional Weather Roundup
Issued by NWS

Home | Current Version | Previous Version | Graphics & Text | Print | Product List | Glossary On
Versions: 1 2 3 4 5 6 7 8 9 10 11 12 13 14 15 16 17 18 19 20 21 22 23 24 25 26 27 28 29 30 31 32 33 34 35 36 37 38 39 40 41 42 43 44 45 46 47 48 49 50
000
ASUS43 KOAX 300402
RWRNE

WEATHER ROUNDUP FOR NEBRASKA
NATIONAL WEATHER SERVICE OMAHA NE
1100 PM CDT MON SEP 29 2014

NOTES: SATELLITE DATA IS BEING USED TO AUGMENT CLOUD COVER ABOVE
       12000 FEET.
       "FAIR" INDICATES FEW OR NO CLOUDS BELOW 12,000 FEET WITH NO
       SIGNIFICANT WEATHER AND/OR OBSTRUCTIONS TO VISIBILITY.

  * THESE STATIONS DO NOT REPORT WEATHER SUCH AS RAIN...SNOW OR FOG.

NEZ001>004-019>022-054>056-300500-
NEBRASKA PANHANDLE

CITY           SKY/WX    TMP DP  RH WIND       PRES   REMARKS
SCOTTSBLUFF    HVY RAIN  54  53  97 NW17      29.73F FOG
ALLIANCE       HVY RAIN  55  53  93 N15       29.71F FOG
CHADRON        HVY RAIN  52  52 100 NW10      29.77F FOG
KIMBALL        LGT RAIN  50  49  95 NW16G22   29.76F
SIDNEY         RAIN      56  53  90 NW21      29.72S FOG
$$

NEZ057>060-069>072-079>082-300500-
SOUTHWEST NEBRASKA

CITY           SKY/WX    TMP DP  RH WIND       PRES   REMARKS
NORTH PLATTE   CLOUDY    71  54  54 SE21G30   29.79F
IMPERIAL       LGT RAIN  60  57  89 S13       29.83R
LEXINGTON      CLOUDY    71  55  57 SE16G25   29.86S
MCCOOK         CLOUDY    72  54  53 SE23G32   29.83R
OGALLALA       RAIN      60  58  95 SE9       29.78F
$$

NEZ005>010-023>029-035>040-094-300500-
NORTH CENTRAL NEBRASKA

CITY           SKY/WX    TMP DP  RH WIND       PRES   REMARKS
VALENTINE      CLOUDY    67  55  65 E15       29.82F
AINSWORTH      CLOUDY    70  50  50 SE20G26   29.85S
BROKEN BOW     CLOUDY    69  53  56 SE16G24   29.87F
O`NEILL        MOCLDY    67  60  77 SE14      29.91S
ORD            CLOUDY    68  53  58 SE9       29.88F
THEDFORD       CLOUDY    71  54  53 SE22G31   29.82F
$$

NEZ041-046>049-061>064-073>077-083>087-300500-
SOUTH CENTRAL NEBRASKA

CITY           SKY/WX    TMP DP  RH WIND       PRES   REMARKS
GRAND ISLAND   MOCLDY    69  54  58 SE13      29.92S
AURORA         PTCLDY    60  55  81 SE6       29.93R
HASTINGS       MOCLDY    69  52  54 SE13      29.91S
HEBRON         PTCLDY    65  55  71 SE5       29.93R
HOLDREGE       MOCLDY    69  53  57 SE13      29.88F
KEARNEY *      MOCLDY    68  54  60 E12       29.90S
YORK           CLEAR     64  57  77 SE7       29.94R
$$

NEZ011>018-030>034-042>045-300500-
NORTHEAST NEBRASKA

CITY           SKY/WX    TMP DP  RH WIND       PRES   REMARKS
NORFOLK        CLOUDY    68  62  81 E9        29.94R
ALBION         CLEAR     64  56  75 SE7       29.93R
BLAIR          PTCLDY    67  61  79 E8        29.95R
COLUMBUS *     CLEAR     63  55  77 E6        29.95R
FREMONT        CLEAR     68  60  74 E5        29.95R
TEKAMAH        CLEAR     67  61  81 E5        29.96R
WAYNE          CLEAR     64  61  90 E12       29.96R
$$

NEZ050>053-065>068-078-088>093-300500-
SOUTHEAST NEBRASKA

CITY           SKY/WX    TMP DP  RH WIND       PRES   REMARKS
LINCOLN        CLEAR     69  54  58 S3        29.94R
OMAHA EPPLEY   PTCLDY    68  57  68 E6        29.95R
BEATRICE       CLEAR     68  58  69 SE7       29.94R
FALLS CITY     CLEAR     66  57  72 SE3       29.94R
NEBRASKA CITY  CLEAR     66  51  58 S5        29.95R
PLATTSMOUTH    CLEAR     67  52  60 SE3       29.95R
$$

NEZ044-045-051>053-067-300500-
OMAHA AREA

CITY           SKY/WX    TMP DP  RH WIND       PRES   REMARKS
OMAHA EPPLEY   PTCLDY    68  57  68 E6        29.95R
BLAIR          PTCLDY    67  61  79 E8        29.95R
FREMONT        CLEAR     68  60  74 E5        29.95R
MILLARD        CLEAR     65  59  81 CALM      29.94R
OFFUTT AFB     CLEAR     60  60  99 E6        29.94R
PLATTSMOUTH    CLEAR     67  52  60 SE3       29.95R
WAHOO          FAIR      64  56  76 SE3       29.94R
$$



USA.gov is the U.S. government's official web portal to all federal, state and local government web resources and services.